Weather History for MNMG - July, 2013

Change the Weather History Date:

Saturday, July 27, 2013

  Actual Average Record
Temperature  
Mean Temperature 82 °F -  
Max Temperature 89 °F 89 °F 93 °F (2000)
Min Temperature 75 °F 71 °F 39 °F (2004)
Cooling Degree Days 17    
Growing Degree Days 32 (Base 50)    
Moisture  
Dew Point 72 °F    
Average Humidity 70    
Maximum Humidity 89    
Minimum Humidity 52    
Precipitation  
Precipitation 0.00 in - - ()
Sea Level Pressure  
Sea Level Pressure 29.85 in    
Wind  
Wind Speed 6 mph ()    
Max Wind Speed 12 mph    
Max Gust Speed -    
Visibility 5.7 miles    
Events      
Averages and records for this station are not official NWS values.
T = Trace of Precipitation, MM = Missing Value Source: Averaged Metar Reports

Daily Weather History Graph

Daily Weather History Graph

Search for Another Location

Airport or City:

Trip Planner

Search our weather history database for the weather conditions in past years. The results will help you decide how hot, cold, wet, or windy it might be!

Date:

Astronomy

Jul. 27, 2013 Rise Set
Actual Time 5:30 AM CST 6:11 PM CST
Civil Twilight 5:07 AM CST 6:34 PM CST
Nautical Twilight 4:41 AM CST 7:00 PM CST
Astronomical Twilight 4:14 AM CST 7:27 PM CST
Moon 10:12 PM CST (7/27) 10:01 AM CST (7/27)
Length of Visible Light 13h 26m
Length of Day
12h 41m
Waning Gibbous, 70% of the Moon is Illuminated
Jul 27
Waning Gibbous
Jul 29
Last Quarter
Aug 6
New
Aug 14
First Quarter
Aug 20
Full

Hourly Weather History & Observations

Time (CST) Temp. Heat Index Dew Point Humidity Pressure Visibility Wind Dir Wind Speed Gust Speed Precip Events Conditions
12:00 AM 75.2 °F - 71.6 °F 89% 29.92 in 5.6 mi East 4.6 mph - N/A   Mostly Cloudy
1:00 AM 75.2 °F - 71.6 °F 89% 29.89 in 5.6 mi Calm Calm - N/A   Mostly Cloudy
2:00 AM 77.0 °F - 71.6 °F 83% 29.89 in 5.6 mi ESE 4.6 mph - N/A   Mostly Cloudy
3:00 AM 75.2 °F - 71.6 °F 89% 29.86 in 5.6 mi SE 6.9 mph - N/A   Scattered Clouds
4:00 AM 75.2 °F - 71.6 °F 89% 29.86 in 5.0 mi ESE 6.9 mph - N/A   Scattered Clouds
5:00 AM 75.2 °F - 71.6 °F 89% 29.86 in 5.6 mi Calm Calm - N/A   Partly Cloudy
6:00 AM 77.0 °F - 71.6 °F 83% 29.86 in 5.0 mi East 6.9 mph - N/A   Partly Cloudy
7:00 AM 80.6 °F 85.4 °F 73.4 °F 79% 29.89 in 5.6 mi East 4.6 mph - N/A   Partly Cloudy
8:00 AM 82.4 °F 88.2 °F 73.4 °F 74% 29.89 in 5.6 mi ESE 9.2 mph - N/A   Partly Cloudy
9:00 AM 84.2 °F 90.9 °F 73.4 °F 70% 29.89 in 5.6 mi East 9.2 mph - N/A   Partly Cloudy
10:00 AM 87.8 °F 93.8 °F 71.6 °F 58% 29.89 in 5.6 mi ENE 11.5 mph - N/A   Partly Cloudy
11:00 AM 87.8 °F 93.8 °F 71.6 °F 58% 29.86 in 5.6 mi ENE 11.5 mph - N/A   Partly Cloudy
12:00 PM 89.6 °F 96.2 °F 71.6 °F 55% 29.83 in 5.6 mi NE 9.2 mph - N/A   Scattered Clouds
1:00 PM 89.6 °F 96.2 °F 71.6 °F 55% 29.83 in 5.6 mi ENE 11.5 mph - N/A   Scattered Clouds
2:00 PM 89.6 °F 96.2 °F 71.6 °F 55% 29.80 in 6.2 mi ENE 9.2 mph - N/A   Scattered Clouds
3:00 PM 89.6 °F 94.7 °F 69.8 °F 52% 29.80 in 5.6 mi NE 11.5 mph - N/A   Scattered Clouds
4:00 PM 89.6 °F 94.7 °F 69.8 °F 52% 29.80 in 5.6 mi ENE 11.5 mph - N/A   Light Drizzle
5:00 PM 87.8 °F 92.6 °F 69.8 °F 55% 29.80 in 5.6 mi East 9.2 mph - N/A   Scattered Clouds
6:00 PM 86.0 °F 91.8 °F 71.6 °F 62% 29.80 in 6.2 mi East 11.5 mph - N/A   Scattered Clouds
7:00 PM 84.2 °F 88.4 °F 69.8 °F 62% 29.83 in 6.2 mi East 11.5 mph - N/A   Partly Cloudy
8:00 PM 82.4 °F 87.2 °F 71.6 °F 70% 29.83 in 6.2 mi East 6.9 mph - N/A   Partly Cloudy
9:00 PM 80.6 °F 84.6 °F 71.6 °F 74% 29.83 in 6.2 mi East 4.6 mph - N/A   Partly Cloudy
10:00 PM 80.6 °F 84.6 °F 71.6 °F 74% 29.86 in 6.2 mi East 6.9 mph - N/A   Partly Cloudy